Regional Weather Roundup
Issued by NWS Sterling, VA

Home | Current Version | Previous Version | Text Only | Print | Product List | Glossary Off
Versions: 1 2 3 4 5 6 7 8 9 10 11 12 13 14 15 16 17 18 19 20 21 22 23 24 25 26 27 28 29 30 31 32 33 34 35 36 37 38 39 40 41 42 43 44 45 46 47 48 49 50

000
ASUS41 KLWX 091410
RWRLWX

REGIONAL WEATHER ROUNDUP
NATIONAL WEATHER SERVICE BALTIMORE MD/WASHINGTON DC
900 AM EST FRI DEC 09 2016

Note: "FAIR" indicates few or no clouds below 12,000 feet
with no significant weather and/or obstructions to visibility.
 TC=TEMPERATURE CELSIUS

 * =Non NWS site. Station does not report precipitation (e.g. rain,
    snow, etc.), thunder, or fog.

DCZ001-MDZ009-015-VAZ040>042-051-053>054-091500-
WASHINGTON METRO

CITY           SKY/WX    TMP DP  RH WIND       PRES   REMARKS
WASHINGTON NAT SUNNY     33  15  47 W15G25    30.32R WCI  23
DULLES         SUNNY     31  14  49 NW20G36   30.30R WCI  19
ANDREWS AFB    SUNNY     31  14  49 NW16      30.28R WCI  20
FT BELVOIR     SUNNY     33  13  45 W15       30.32R WCI  22
QUANTICO       SUNNY     33  14  45 NW3       30.36R
COLLEGE PARK*  SUNNY     32  14  47 W16       30.29S WCI  21
LEESBURG*      SUNNY     32  21  64 NW16G28   30.31R WCI  21
MANASSAS*      SUNNY    N/A N/A N/A NW12G17   30.34R
GAITHERSBURG*  MOSUNNY   28  14  54 W8G16     30.32R WCI  20

$$

MDZ006>007-011-014-091500-
BALTIMORE METRO

CITY           SKY/WX    TMP DP  RH WIND       PRES   REMARKS
BWI AIRPORT    MOSUNNY   31  16  54 NW14G24   30.27R WCI  21
MD SCIENCE CTR   N/A     33  14  45 MISG      30.29R
MARTIN STATE   SUNNY     34  19  55 W18       30.29  WCI  23
ANNAPOLIS      SUNNY     33  17  51 W14       30.29R WCI  23
FORT MEADE*    SUNNY     30  18  59 W13G18    30.31R WCI  20

$$

MDZ012-015-019>023-091500-
MARYLAND EASTERN SHORE

CITY           SKY/WX    TMP DP  RH WIND       PRES   REMARKS
OCEAN CITY     SUNNY     32  17  54 NW12G20   30.27R WCI  23
SALISBURY      SUNNY     32  17  54 NW13      30.28R WCI  22
BAY BRIDGE AP* SUNNY     32  18  55 MISG      30.29R
CAMBRIDGE*     SUNNY     32  18  55 W15G21    30.28R WCI  22
EASTON*        SUNNY     34  18  51 NW12G21   30.32R WCI  25

$$

MDZ017>025-091500-
SOUTHERN MARYLAND

CITY           SKY/WX    TMP DP  RH WIND       PRES   REMARKS
PATUXENT RIVER MOSUNNY   32  15  49 W14       30.30R WCI  22
ST INIGOES     SUNNY     33  16  49 W10G20    30.31R WCI  25
LEONARDTOWN*   SUNNY     32  16  51 W6        30.31R

$$

MDZ003>005-091500-
NORTH CENTRAL MARYLAND

CITY           SKY/WX    TMP DP  RH WIND       PRES   REMARKS
FREDERICK*     SUNNY     30  18  59 NW14      30.33R WCI  20
HAGERSTOWN APT MOSUNNY   30  15  53 W14       30.28R WCI  19
WESTMINSTER*     N/A     27  16  63 NW18G24   30.23S WCI  13

$$

MDZ501>502-091500-
WESTERN MARYLAND

CITY           SKY/WX    TMP DP  RH WIND       PRES   REMARKS
OAKLAND*       FOG       14  14 100 W9G20     30.19R VSB 1   WCI   2
CUMBERLAND*    NOT AVBL

$$

VAZ025>031-091500-
SHENANDOAH VALLEY

CITY           SKY/WX    TMP DP  RH WIND       PRES   REMARKS
WINCHESTER*    MOSUNNY   28  14  54 NW17G24   30.30R WCI  16
FRONT ROYAL*   FAIR      30  14  51 W13       30.31R WCI  20
LURAY*         FAIR      30  18  59 W6        30.31R
NEW MARKET*    FAIR      28  11  48 CALM      30.31S
STAUNTON*      SUNNY     26  12  55 S5        30.33R
WAYNESBORO*    FAIR      26   9  48 W3        30.30S

$$

WVZ021-048>050-054>055-091500-
EASTERN WEST VIRGINIA PANHANDLE

CITY           SKY/WX    TMP DP  RH WIND       PRES   REMARKS
MARTINSBURG    CLOUDY    30  15  53 W16       30.31R WCI  19
PETERSBURG*    MOSUNNY   30  15  53 CALM      30.34R

$$

VAZ036>039-050-091500-
CENTRAL FOOTHILLS

CITY           SKY/WX    TMP DP  RH WIND       PRES   REMARKS
CHARLOTTESVILL SUNNY     31  11  43 SW3       30.33R
CULPEPER*      SUNNY     33  14  45 CALM      30.34R
ORANGE*          N/A     32  14  47 SW8       30.34R WCI  25
GORDONSVILLE*  FAIR      31  13  46 SW8       30.33S WCI  24
WARRENTON*     FAIR      33   9  36 W6        30.32R

$$

VAZ055>057-091500-
NORTH AND CENTRAL PIEDMONT

CITY           SKY/WX    TMP DP  RH WIND       PRES   REMARKS
FREDERICKSBRG* SUNNY     33  16  50 W7        30.34R
STAFFORD*      SUNNY     31  13  48 W7        30.37S

$$

NCZ024-NYZ072-PAZ021-071-VAZ022-071-091500-
OTHER REGIONAL OBSERVATIONS

CITY           SKY/WX    TMP DP  RH WIND       PRES   REMARKS
NEW YORK CITY    N/A     36  19  51 MISG        N/A
PHILADELPHIA   SUNNY     33  17  51 W15G22    30.22R WCI  23
PITTSBURGH     CLOUDY    24  18  77 W9G18     30.32R WCI  14
ROANOKE        PTSUNNY   26   9  48 NW12      30.40R WCI  16
RICHMOND       SUNNY     32  14  47 NW15      30.35R WCI  22

$$

ANZ530>537-091500-
MARINE OBSERVATIONS

STATION/POSITION TIME  TEMP    WIND        PRES
                       AIR SEA DIR/SP/G
                 (UTC) (F)     (DEG/KT/KT) (MB)
THOMAS PT LIGHT  1400   32 47  300/ 25/ 28   N/A
BALT KEY BRIDGE  1348   31     270/ 18/ 21 1025.0R
COVE POINT       1348   31     330/ 12/ 17 1026.4R
LEWISETTA        1348   33 45  300/ 10/ 14 1026.3R
SOLOMONS ISLAND  1348   33 49  310/  9/ 16   N/A
PINEY POINT      1348          340/ 21/ 23   N/A

$$




USA.gov is the U.S. government's official web portal to all federal, state and local government web resources and services.